Theta_e
358 357 358 357 358 359 362 361 358 361 364 359 359 358 355 356 351 347 346 349 345 349 349 346 363 365 366 368 366 365 366 366 362 361 366 366 371 357 354 354 355 356 353 353 352 352 354 355 355 355 357 358 361 362 362 361 360 358 355 353 351 349 348 347 347 348 347 348 349 349 350 350 350 349
360 358 358 359 358 361 360 358 359 361 364 360 359 359 359 360 355 353 348 349 351 348 352 351 357 370 365 364 363 362 364 363 364 363 365 365 366 355 354 355 354 354 351 349 350 351 351 352 352 350 352 354 356 358 362 361 360 359 357 355 352 350 350 348 347 347 347 348 348 349 349 350 350 350
360 361 360 362 361 363 361 362 359 360 360 360 361 360 361 361 361 358 355 350 354 357 352 351 354 354 360 362 363 362 364 362 364 366 367 368 361 356 362 354 353 351 349 347 347 346 348 348 348 346 348 350 353 356 359 362 360 359 359 357 355 352 350 348 347 347 347 347 348 348 348 349 349 349
361 363 362 363 362 360 360 360 359 359 361 363 361 361 362 362 362 362 357 354 353 357 353 354 356 357 360 362 361 364 363 362 362 369 366 369 362 367 362 351 352 350 348 348 345 345 344 345 345 345 345 347 351 353 356 359 360 360 359 358 356 354 352 348 347 348 347 347 347 347 348 348 348 349
363 363 365 362 362 364 361 359 359 358 358 362 361 362 360 358 360 360 358 353 352 358 360 358 356 359 362 359 364 363 360 361 364 363 365 368 365 364 362 365 349 349 348 346 345 344 343 342 342 343 344 344 347 348 348 350 350 351 356 358 356 351 350 348 347 348 348 347 347 347 347 347 348 348
361 360 360 358 360 361 359 358 358 357 361 359 355 356 357 356 358 363 359 356 355 353 356 355 360 357 360 356 364 362 361 361 364 360 362 363 363 362 363 362 359 347 349 348 345 345 341 340 340 341 341 342 343 343 344 343 341 345 350 353 350 347 347 348 348 347 347 347 347 346 346 347 348 347
365 360 361 361 362 362 359 360 360 360 359 360 358 358 359 359 357 359 363 361 356 355 354 359 357 358 360 359 360 362 361 363 360 360 359 357 356 357 359 359 357 346 350 348 346 343 341 341 340 340 339 340 339 339 340 337 337 339 341 340 343 345 346 345 346 347 347 348 347 346 346 346 347 347
361 360 359 360 361 362 361 361 361 360 360 360 362 362 363 365 362 362 363 363 360 358 355 358 356 358 357 359 360 360 358 353 355 356 358 357 355 356 355 357 357 350 350 349 345 345 343 341 340 338 337 337 335 334 334 334 334 335 337 336 338 339 341 339 339 343 344 345 344 346 347 347 345 346
364 361 359 360 362 363 361 361 359 359 357 361 362 360 361 361 362 362 363 362 362 359 356 353 356 358 358 357 359 356 350 351 353 356 355 352 354 355 355 354 354 349 345 347 346 343 344 342 339 336 336 335 333 332 333 332 331 332 331 330 332 335 335 334 335 337 339 339 338 339 344 346 346 346
365 362 361 362 362 362 360 360 361 360 358 359 359 359 360 360 362 363 363 362 359 358 355 353 350 355 353 353 354 353 351 348 348 350 350 352 352 352 350 351 353 354 353 355 356 346 342 338 335 339 338 335 333 332 333 333 330 328 326 326 329 332 329 330 332 333 333 334 334 335 339 342 343 344
365 364 362 362 363 361 361 360 360 359 358 356 357 361 361 363 362 360 359 359 357 355 352 351 352 350 351 352 346 349 351 350 348 345 345 346 349 351 352 350 351 351 352 352 346 348 349 346 346 335 334 333 332 334 334 333 330 328 324 324 328 327 328 329 328 328 329 331 331 331 329 331 339 343
366 366 362 360 362 362 364 363 357 355 355 353 353 356 359 360 360 358 356 356 354 351 350 347 345 346 345 346 346 346 348 345 346 346 345 344 345 347 351 352 348 349 352 352 353 349 347 346 345 335 336 335 334 333 335 335 332 328 326 327 330 330 327 326 326 326 326 327 327 328 328 326 329 336
366 366 365 362 363 365 361 358 354 357 356 354 354 355 359 361 359 358 356 353 351 348 346 345 344 342 342 343 343 342 342 343 343 347 348 346 347 348 348 351 350 349 348 350 351 349 351 350 351 350 350 349 345 339 336 336 335 329 327 328 329 328 326 326 325 325 324 324 325 325 327 326 324 326
363 363 364 364 359 359 360 359 356 354 352 351 355 359 361 359 358 354 351 349 347 346 342 340 340 338 339 340 344 343 345 347 348 347 346 344 346 348 347 347 348 347 348 347 348 347 350 349 346 347 345 344 341 340 339 335 332 329 327 328 327 327 326 325 324 323 323 322 323 323 323 323 324 322
363 364 363 363 361 362 359 356 350 348 346 346 346 345 345 347 353 354 348 345 345 343 341 340 340 339 338 340 343 344 343 346 346 345 347 345 345 342 340 337 343 346 347 350 347 345 349 350 344 344 343 342 340 337 336 328 327 326 326 326 326 326 326 327 326 324 322 323 323 322 321 321 321 321
361 361 360 358 358 361 359 353 350 346 344 343 343 343 343 344 343 343 350 348 343 343 340 338 339 339 338 339 340 340 343 344 345 346 346 346 342 340 339 337 336 342 348 347 344 341 344 348 343 342 341 341 340 336 330 328 326 325 325 325 325 325 325 325 326 325 324 324 324 323 323 323 324 322
361 361 359 357 354 355 353 352 351 349 345 343 343 344 344 344 343 338 339 343 345 343 341 340 339 338 339 338 339 341 341 344 343 342 341 344 343 340 336 336 336 340 346 345 342 338 339 344 344 339 339 341 341 338 330 327 327 325 325 324 324 324 325 324 324 324 324 322 320 319 320 322 323 321
362 360 359 355 352 351 351 350 349 347 346 346 347 346 346 345 344 342 343 343 343 344 342 341 338 340 341 338 340 343 344 342 339 338 337 342 342 341 337 339 340 340 341 339 339 336 336 338 342 339 340 340 339 343 331 326 326 326 323 323 322 322 323 324 323 322 321 322 320 319 317 317 318 318
360 357 353 349 345 347 347 348 346 344 343 343 343 344 342 339 336 336 338 342 343 342 341 340 340 339 340 340 340 341 341 342 343 342 341 341 342 344 347 342 340 335 337 341 338 332 334 336 337 340 340 338 338 340 329 327 328 326 325 323 323 320 321 323 323 322 321 320 319 318 317 316 316 316
353 351 348 346 345 345 345 344 343 343 343 343 342 339 337 335 333 329 330 325 330 337 339 339 337 335 334 333 336 336 338 342 344 342 338 338 338 336 332 330 334 328 330 333 336 334 331 335 329 333 341 339 338 338 339 329 331 329 326 325 322 320 318 321 321 321 321 320 319 319 316 315 314 315
345 345 346 345 342 342 342 337 331 338 343 344 340 337 336 334 332 330 328 326 326 325 324 324 327 327 328 327 325 324 326 334 338 337 332 329 330 329 326 325 329 328 326 325 331 334 326 330 329 327 329 340 337 337 337 340 332 329 328 323 321 320 318 317 319 320 321 320 320 319 318 316 317 316
342 343 343 343 344 341 340 332 329 333 345 343 340 337 334 331 329 329 330 329 330 328 327 327 327 328 328 330 328 326 326 327 332 332 326 328 328 325 325 322 323 328 325 323 329 333 325 326 328 324 326 330 336 330 332 336 332 330 326 322 323 322 320 317 317 319 320 319 319 319 317 316 316 335
342 340 340 339 339 340 336 323 328 332 344 341 339 338 335 331 329 328 329 328 326 327 326 326 327 327 327 328 327 328 329 328 328 326 325 325 326 323 322 322 322 320 322 322 331 328 327 324 324 323 322 319 325 326 326 330 332 329 332 338 340 324 323 319 318 316 316 317 319 318 316 315 315 335
338 338 338 334 325 322 321 319 320 325 330 339 338 336 332 328 326 326 324 325 324 323 323 323 324 325 326 323 324 325 324 324 326 324 324 324 322 321 318 319 320 319 320 323 328 327 327 325 320 324 323 317 317 321 325 327 330 329 329 330 333 328 328 324 320 314 316 317 314 315 313 313 314 330
334 334 336 334 322 317 316 316 315 316 322 331 335 333 331 329 327 326 323 323 325 324 324 323 323 322 323 323 322 320 323 322 324 324 324 323 322 321 318 317 318 318 323 325 326 328 324 325 322 322 322 321 319 319 322 325 329 326 327 327 329 333 333 331 328 334 318 314 311 309 309 313 313 321
335 336 336 336 324 316 315 313 312 313 317 323 333 328 315 316 321 326 326 326 324 323 322 320 319 319 318 317 318 319 319 321 324 321 322 322 323 322 321 320 319 318 319 325 325 325 322 323 322 320 320 319 319 320 319 319 323 324 326 325 325 330 331 328 327 328 330 330 331 327 324 313 316 313
337 338 336 332 322 313 310 310 311 313 316 322 320 311 314 316 321 327 326 326 324 322 321 320 319 319 317 317 317 319 320 321 324 322 323 322 322 323 324 322 322 320 321 324 325 325 323 320 324 321 319 321 319 319 318 316 317 323 322 322 324 327 329 325 325 325 325 325 328 320 315 311 312 315
335 335 335 324 309 307 305 307 310 313 319 321 309 312 315 321 326 328 327 325 325 322 319 319 318 317 318 318 318 320 321 319 323 322 321 322 321 323 323 324 323 322 322 321 322 322 323 321 321 324 324 321 318 316 314 319 319 320 320 322 323 324 325 324 324 325 325 325 324 326 328 328 330 337
330 318 308 307 308 309 308 310 313 314 315 312 313 314 321 325 326 327 324 323 322 319 318 317 317 317 317 318 319 322 322 322 322 322 319 321 320 320 323 324 324 322 318 319 321 321 321 320 320 323 324 322 319 319 317 316 318 318 319 319 317 321 323 323 323 323 323 323 322 324 326 325 326 326
313 311 310 310 312 316 319 324 324 323 323 318 320 322 325 325 324 324 322 322 320 319 317 317 316 317 318 319 323 324 324 322 319 320 320 318 317 319 320 320 319 321 320 321 320 319 320 320 320 321 321 321 319 318 319 317 317 318 319 318 318 321 321 321 322 321 322 321 322 324 325 325 324 326
320 321 324 323 319 319 320 322 322 321 323 323 322 321 321 321 322 323 322 320 319 319 317 317 318 320 322 324 324 321 321 319 319 319 319 317 317 319 320 320 317 317 318 320 320 319 319 320 320 321 319 319 319 320 320 319 317 316 317 318 317 314 317 319 320 320 321 321 323 322 324 324 323 325
327 326 323 321 324 323 321 321 322 322 324 323 322 320 319 319 320 320 321 321 323 323 323 323 323 322 322 320 319 319 318 317 318 319 318 318 317 318 318 317 315 315 316 317 318 321 320 321 321 321 321 320 318 319 319 318 315 316 315 316 316 316 318 316 317 319 321 322 320 319 319 321 321 324
327 326 323 322 319 319 318 318 317 318 318 317 318 318 321 322 322 324 322 322 321 321 321 320 320 319 319 319 317 318 315 316 316 319 317 319 317 318 318 314 314 313 312 314 316 317 319 320 322 321 321 322 320 320 315 312 315 316 313 314 315 315 316 316 317 318 322 320 317 317 318 320 321 321
324 322 318 317 316 317 317 315 316 316 317 318 319 320 321 321 321 321 321 320 320 320 319 319 318 318 317 316 317 316 314 315 316 318 316 318 317 316 313 314 313 313 312 312 313 314 315 317 319 320 321 321 322 323 319 314 311 314 314 314 313 313 315 316 317 320 320 318 316 315 315 317 320 321
321 319 317 315 316 316 315 315 315 317 318 319 320 320 320 320 318 319 318 318 319 318 318 319 318 317 316 314 315 314 314 314 315 315 316 315 316 314 313 312 312 311 311 312 311 313 313 314 315 314 316 317 316 320 316 319 313 313 314 313 314 313 313 315 316 318 319 318 318 315 316 316 318 320
320 319 318 317 317 317 318 318 319 319 319 320 320 319 318 318 318 317 316 317 318 317 316 316 315 314 314 313 313 314 314 313 314 313 313 314 313 313 313 312 311 311 311 311 310 312 312 312 312 310 309 309 310 309 314 317 319 316 311 311 312 313 314 316 318 318 316 315 316 315 313 313 316 318
320 320 320 319 320 319 318 319 319 321 320 320 319 318 318 317 317 317 319 319 318 316 314 315 314 313 313 313 314 313 313 312 312 313 312 312 313 312 310 311 311 311 310 311 312 312 313 311 310 309 307 306 307 305 308 315 313 315 317 311 312 312 314 315 315 314 314 315 315 314 313 314 315 316
321 320 319 319 319 320 320 320 320 320 320 319 319 318 318 318 318 318 320 317 315 315 314 313 312 313 313 313 312 312 312 312 312 312 310 311 310 309 309 309 309 310 310 310 312 311 311 310 309 309 307 306 304 305 306 310 312 313 312 315 312 312 313 313 312 311 312 314 313 314 315 313 314 314
322 321 321 321 320 320 320 319 319 319 319 319 318 317 317 317 317 317 316 315 315 313 313 313 312 312 313 312 311 311 310 310 310 309 309 309 308 309 308 308 309 309 309 309 310 310 310 308 308 308 308 306 306 306 308 308 308 313 313 308 313 312 312 311 311 310 311 311 312 314 315 316 316 313
324 323 322 321 320 320 320 320 319 319 318 318 317 317 316 314 314 314 314 313 313 314 314 312 312 311 312 311 311 311 311 310 309 308 308 308 308 308 307 308 308 308 308 307 307 308 308 308 308 308 308 310 311 311 311 312 313 316 316 313 307 311 313 312 310 310 310 311 312 310 309 311 310 314
321 321 320 320 320 320 319 318 317 316 315 315 315 315 314 313 312 311 310 311 313 312 311 312 311 312 311 310 311 309 308 307 308 307 308 308 307 307 306 307 307 307 306 306 306 306 307 308 311 313 313 313 314 314 310 307 306 308 310 313 307 309 309 311 313 312 310 312 310 309 308 309 309 310
319 318 318 319 318 318 317 316 316 315 316 315 314 313 314 313 310 307 311 311 312 312 310 309 310 309 309 309 308 307 308 306 307 307 307 307 306 307 307 307 306 306 305 304 305 306 308 311 312 312 311 310 309 307 305 306 305 307 308 310 313 310 308 309 308 310 314 311 308 307 307 308 309 308
318 317 316 316 316 316 315 315 315 315 314 314 313 313 312 311 310 309 309 309 310 309 309 308 308 308 308 308 307 307 307 307 307 306 306 306 306 305 305 305 305 306 306 306 306 308 308 309 311 309 309 308 308 307 305 306 307 307 308 308 309 312 317 309 309 308 308 308 309 310 311 308 305 303
317 316 316 316 315 315 314 314 313 313 313 313 311 311 310 309 309 308 309 308 308 308 308 308 307 307 307 307 308 307 307 307 307 306 306 307 306 306 305 305 305 306 306 306 306 307 308 308 308 308 307 306 307 306 305 306 305 306 307 307 310 309 308 311 312 309 309 308 308 308 306 306 311 311
316 315 315 315 314 314 313 313 313 312 311 311 310 309 308 309 308 308 308 308 308 308 307 307 307 307 307 307 307 306 306 306 307 307 306 306 305 305 305 305 305 305 305 306 305 306 307 306 307 308 307 306 306 306 307 306 305 306 307 307 307 308 308 308 307 308 307 310 308 306 309 309 311 310
Wind_Speed
6 6 6 5 5 5 5 6 6 4 3 5 5 5 5 4 5 6 5 4 6 6 6 3 0 3 2 4 5 5 6 4 5 7 6 5 3 7 1 2 2 3 2 2 4 4 5 5 6 7 7 8 7 7 6 7 8 6 4 2 4 4 1 1 1 2 4 5 5 6 6 5 4 1
6 6 6 5 5 5 6 6 6 5 4 5 5 4 4 3 4 5 5 5 6 6 5 6 3 5 2 5 5 5 7 8 5 7 7 7 5 3 4 3 2 2 2 3 3 5 6 6 6 7 7 8 8 8 9 6 8 7 6 5 3 5 2 3 1 1 3 3 4 5 5 5 5 4
5 5 6 5 5 6 6 6 7 5 5 5 5 5 4 3 4 4 4 6 3 5 7 6 6 6 4 6 6 6 8 2 3 7 7 7 6 7 6 6 4 2 1 2 3 4 4 5 5 7 7 8 8 9 8 7 8 8 8 7 6 4 4 5 2 1 1 2 4 4 4 5 4 5
4 4 5 5 5 5 6 6 6 6 5 4 5 5 4 3 4 3 4 5 6 5 6 7 8 6 7 7 6 7 7 3 6 8 8 7 7 9 2 4 2 3 2 1 3 4 4 3 4 5 7 7 8 10 10 11 12 9 8 7 7 5 4 5 5 3 1 1 2 3 4 4 4 3
6 5 3 3 6 6 6 6 7 8 9 5 4 4 4 4 3 3 4 6 6 5 5 6 5 7 6 7 6 7 7 8 7 9 8 8 8 7 4 6 0 4 3 2 3 4 4 4 4 4 5 6 8 9 10 11 12 13 12 9 6 5 5 5 6 4 3 2 1 2 3 4 4 3
7 4 1 5 6 3 4 4 5 4 2 9 8 3 4 4 4 2 4 5 6 6 6 6 6 6 6 7 5 7 8 8 7 8 7 7 6 6 6 3 6 5 4 5 2 2 3 4 4 5 5 6 7 7 9 9 10 11 12 11 6 7 6 5 5 5 4 3 3 2 2 3 3 3
3 3 5 5 4 3 4 4 5 5 5 4 7 5 4 4 4 2 2 4 5 6 6 5 6 5 5 6 6 7 6 7 7 8 7 7 7 6 8 7 2 8 7 6 4 2 2 2 3 3 3 5 6 7 7 7 8 9 9 10 6 5 6 6 5 5 5 4 4 3 2 1 2 3
5 4 3 4 4 4 5 5 6 6 8 7 4 4 4 4 4 3 3 4 5 5 6 5 6 5 6 5 6 6 8 8 8 7 7 8 7 8 8 7 7 6 4 6 4 4 4 3 2 2 2 3 4 4 4 6 7 7 9 10 7 4 6 8 8 6 5 4 3 3 3 2 2 1
4 4 5 6 6 6 7 6 7 6 8 7 4 5 4 3 3 3 3 3 4 5 6 6 5 5 5 5 6 7 8 8 7 7 7 7 7 7 7 7 6 3 6 8 7 8 7 6 5 1 3 2 3 3 5 6 7 7 7 8 8 6 3 3 5 5 6 6 5 4 4 4 3 1
6 6 7 7 7 6 6 7 5 4 6 10 5 6 4 4 3 4 3 3 4 6 6 6 6 5 6 6 6 7 8 8 7 7 7 7 7 8 8 8 7 7 7 4 1 6 7 8 7 3 3 2 4 6 8 7 8 8 7 7 6 7 6 4 1 4 5 5 5 5 5 5 4 4
6 6 6 6 5 6 7 7 6 3 4 8 11 4 5 3 4 4 3 4 5 5 6 5 5 5 5 5 7 7 7 7 7 7 7 7 7 6 6 7 7 8 8 3 5 4 7 8 4 7 4 4 5 7 8 9 9 10 10 10 8 7 6 5 4 2 2 4 6 6 5 5 5 5
5 5 6 6 6 6 6 3 3 4 4 3 8 8 4 4 3 4 4 4 4 4 4 5 5 4 5 5 6 6 7 7 6 7 6 7 7 7 5 6 9 10 8 8 5 3 7 6 5 7 7 8 9 5 7 13 14 15 12 12 13 11 9 7 7 6 4 3 4 6 6 6 6 6
5 5 6 5 6 2 1 4 1 3 5 5 5 7 4 3 2 2 3 3 3 3 3 4 4 5 5 5 5 6 6 6 7 7 7 7 7 7 6 6 9 9 9 8 6 8 9 8 8 8 7 7 4 16 16 13 14 14 12 12 11 11 10 10 9 9 8 7 6 5 5 6 6 6
6 5 5 4 4 2 2 2 5 10 9 9 10 5 3 1 1 1 0 2 2 2 2 4 5 5 5 6 6 6 6 6 6 6 7 7 6 6 7 6 8 10 10 9 7 9 9 8 9 9 9 9 11 9 11 9 10 12 12 11 11 9 8 7 8 9 9 9 7 6 6 6 5 5
5 4 3 3 3 5 6 10 14 14 14 14 13 14 14 13 8 3 2 2 1 2 4 3 3 5 5 7 7 7 7 7 7 6 6 6 6 7 7 8 6 9 11 9 7 8 9 9 8 8 8 9 10 11 9 10 10 10 10 11 12 12 11 9 7 8 8 8 8 7 6 6 7 6
4 5 5 4 3 2 8 8 9 12 14 14 15 14 13 13 15 13 10 3 3 5 4 4 5 5 6 6 7 8 8 8 7 7 6 7 7 7 7 7 8 8 10 8 7 7 7 6 6 7 8 8 8 7 7 7 7 7 7 7 7 8 9 9 10 10 10 9 9 8 7 5 5 5
4 4 4 2 4 5 9 7 7 7 10 12 14 13 14 15 14 13 15 15 7 5 6 6 7 7 6 7 7 8 8 7 7 7 7 7 6 6 7 7 8 9 9 7 7 7 8 7 6 7 8 8 7 6 7 3 5 6 7 7 7 7 7 7 9 10 10 9 9 10 8 7 6 6
4 3 4 3 4 4 5 7 9 9 9 8 8 9 10 9 10 11 11 10 11 9 8 7 7 7 7 7 7 8 8 8 7 7 8 8 6 4 6 7 7 8 9 8 7 6 8 9 7 7 6 7 7 6 5 3 1 4 4 6 7 6 5 5 5 6 6 7 9 7 6 6 6 7
1 3 5 7 6 4 5 5 9 9 9 8 8 9 10 9 9 9 9 8 6 6 7 7 8 7 7 7 7 8 7 6 5 4 5 7 7 4 1 5 6 7 10 10 8 6 7 8 7 6 6 7 6 5 8 5 3 2 2 3 5 5 6 6 5 5 6 6 4 3 3 5 5 7
4 4 4 5 6 6 7 9 9 9 8 9 10 10 10 10 10 11 10 12 13 11 8 8 8 8 8 8 8 8 8 7 6 4 5 6 5 6 5 6 4 7 9 11 9 7 7 7 8 8 5 6 5 5 4 9 4 4 2 1 1 3 4 4 5 5 6 4 4 4 2 2 5 6
6 4 5 6 6 6 7 8 7 6 10 10 11 11 11 9 9 9 8 10 11 11 11 9 8 6 6 9 11 12 14 11 9 6 6 7 6 6 6 6 6 6 8 9 10 8 6 8 8 8 7 3 5 6 7 5 6 6 6 5 3 1 1 2 3 3 3 5 5 5 5 5 3 5
5 6 9 9 9 10 9 7 6 3 7 11 11 11 11 10 9 8 7 6 6 8 8 8 7 7 7 6 9 11 12 13 11 8 8 8 7 7 7 6 7 3 7 9 11 8 6 8 7 8 8 7 3 5 6 6 5 4 10 5 5 5 3 1 2 2 1 3 6 7 9 10 12 7
7 7 8 10 9 8 8 6 3 7 10 10 10 10 10 10 9 6 5 5 6 5 6 5 5 6 8 7 7 8 11 14 13 9 8 7 7 6 6 6 6 4 6 10 13 8 7 8 6 8 7 7 5 6 6 6 6 7 8 1 1 6 5 5 5 5 3 1 1 2 6 9 11 7
6 7 8 9 11 11 10 9 10 9 8 8 7 7 7 8 8 6 6 6 6 6 6 5 5 6 6 7 7 8 9 9 10 9 8 8 7 6 6 6 5 5 5 8 12 8 7 7 7 8 7 8 7 7 6 5 5 7 7 7 6 8 3 9 8 8 4 5 3 2 3 4 7 7
9 9 8 8 9 12 12 13 14 13 12 10 9 8 7 7 8 7 7 7 7 5 5 5 5 5 6 6 6 6 7 7 7 7 8 8 7 7 6 6 7 5 5 7 11 8 7 7 7 8 7 8 7 8 7 6 4 7 8 8 8 6 7 7 8 4 5 7 5 5 4 2 3 4
11 10 10 9 9 13 14 14 14 14 13 12 9 9 12 12 10 7 5 3 4 5 5 5 6 6 7 7 7 7 7 8 7 7 6 6 6 6 6 6 6 6 6 7 8 8 8 6 8 8 7 8 8 7 7 7 6 7 7 8 7 6 6 8 8 6 8 9 3 5 3 4 3 3
12 11 12 10 13 15 16 16 15 14 14 12 10 13 12 10 7 5 4 4 5 6 6 6 7 7 6 7 7 7 6 6 7 6 5 6 5 5 4 6 5 6 5 6 7 7 7 6 7 7 8 7 8 7 7 7 7 6 7 8 8 7 7 8 7 7 8 8 8 4 6 8 7 6
12 12 10 9 15 16 16 16 15 14 12 10 10 9 7 4 4 5 5 5 6 7 7 7 6 6 5 5 5 5 5 6 6 6 5 5 6 5 5 4 5 5 5 6 7 7 7 7 7 7 8 7 8 7 8 7 7 7 8 8 8 7 7 8 7 8 8 9 8 8 8 7 4 2
9 13 16 16 17 17 17 17 15 12 11 11 9 8 5 5 5 5 6 6 6 6 6 5 5 4 4 4 5 5 5 6 6 6 7 6 6 6 4 3 2 3 3 5 6 7 7 7 8 8 7 7 7 7 7 8 8 8 8 8 8 7 7 8 9 9 9 9 9 8 8 7 7 7
18 17 16 18 17 15 12 10 8 9 9 10 10 9 7 6 5 5 5 5 5 5 5 4 4 4 3 3 3 4 4 5 6 6 6 6 6 6 5 4 4 4 5 5 6 8 8 8 8 8 7 7 7 7 7 8 7 8 8 8 8 7 8 9 9 8 10 10 9 8 7 7 6 7
12 13 10 9 12 13 14 14 13 13 11 9 7 6 7 7 6 5 4 5 5 5 4 4 4 4 4 3 3 3 4 5 5 7 7 7 7 7 6 5 5 6 5 6 6 8 8 7 7 8 7 7 7 7 8 8 8 8 8 8 9 8 9 9 9 9 10 10 9 8 7 7 6 8
11 11 13 13 10 10 9 9 7 7 6 7 6 6 6 6 7 8 8 7 5 4 4 4 3 3 3 5 5 5 5 6 5 7 7 7 6 6 6 4 5 6 6 6 6 7 8 8 8 7 7 7 7 7 7 7 7 8 8 8 9 9 9 10 10 10 10 10 9 8 8 8 9 9
10 9 9 8 8 7 8 7 8 7 7 7 7 7 6 5 4 3 4 5 5 4 4 4 4 5 4 4 5 5 6 6 4 5 6 5 5 5 4 5 5 6 7 7 7 7 8 9 9 8 6 6 5 4 6 6 7 7 8 8 8 9 9 9 9 10 11 9 9 9 9 9 9 9
9 8 8 8 8 8 7 7 7 8 7 6 6 5 3 3 4 4 4 4 4 4 4 4 5 5 5 5 6 6 6 6 5 5 5 5 6 6 6 6 6 6 7 7 7 8 8 8 8 7 6 4 4 1 6 6 7 7 8 8 8 9 9 10 10 11 9 8 9 8 8 7 8 8
8 8 8 8 8 8 7 7 7 7 6 6 5 5 5 5 5 4 5 5 4 4 4 4 5 6 6 7 6 7 6 7 6 5 5 6 6 6 6 6 6 7 7 7 7 7 8 8 8 8 7 7 1 7 7 6 7 8 7 8 9 9 10 10 10 9 10 9 8 9 8 7 6 7
8 8 8 8 7 7 6 5 6 5 5 4 4 4 4 5 5 5 5 5 5 5 5 5 6 6 6 6 6 5 5 6 5 6 6 6 6 6 6 6 7 7 7 7 7 7 8 8 8 9 9 7 7 2 4 5 12 6 8 9 9 9 10 10 10 9 9 9 8 8 8 8 6 7
8 7 7 7 7 6 6 6 5 5 4 4 5 4 4 5 5 5 4 3 3 4 5 5 5 6 6 6 5 5 6 6 6 6 6 6 6 6 7 7 7 7 7 7 7 7 8 8 9 9 9 9 7 6 7 5 8 8 7 8 9 9 10 10 9 9 9 9 9 8 8 7 6 6
8 7 7 7 6 7 6 6 6 6 5 5 5 5 5 5 4 4 2 3 5 5 4 5 5 5 5 5 5 5 5 5 5 6 6 6 6 7 7 8 7 7 7 7 7 7 7 8 8 9 9 9 8 9 8 9 3 6 10 7 8 9 9 9 9 9 9 8 9 8 7 7 5 5
8 8 8 7 6 6 6 6 6 6 5 5 5 4 4 4 3 3 4 4 5 5 4 4 5 5 5 5 5 5 5 6 6 6 6 6 7 7 8 8 7 7 7 7 7 7 7 8 8 8 9 8 8 8 9 9 9 6 6 7 6 8 8 9 9 9 9 10 10 9 6 4 3 7
7 8 8 7 7 7 7 6 6 5 6 5 5 4 4 4 4 4 4 4 4 3 3 4 4 5 5 4 5 5 4 5 6 6 7 7 7 7 7 7 7 7 7 7 8 7 7 8 7 8 8 8 8 9 9 9 8 7 2 5 7 6 6 8 8 9 9 10 9 9 8 7 5 2
8 8 7 7 7 7 7 6 6 6 6 6 6 5 5 5 5 5 5 5 4 4 3 4 4 4 5 5 5 6 6 6 6 7 7 7 7 6 7 7 6 7 7 7 7 8 8 8 8 9 9 7 8 8 7 6 7 7 8 3 6 5 3 3 6 7 8 9 9 8 9 8 8 5
8 8 7 7 7 7 6 6 6 5 5 4 4 4 4 4 5 1 1 2 1 2 3 4 4 5 5 5 6 6 6 6 7 6 7 6 6 7 6 7 7 7 7 8 8 8 8 8 8 8 7 7 7 7 7 8 7 8 7 8 3 7 6 4 0 4 6 7 7 8 8 8 7 7
8 8 8 7 7 7 6 6 5 5 5 5 4 3 2 3 2 1 2 3 3 3 4 4 4 5 5 5 5 6 6 6 6 6 6 6 7 7 7 7 7 8 8 7 7 6 7 7 7 7 7 7 7 7 8 8 8 8 9 7 8 7 1 7 5 4 3 1 2 4 5 6 8 8
8 8 7 7 7 7 6 6 5 5 4 4 3 3 3 3 3 3 3 3 3 4 4 5 5 5 5 5 5 5 5 6 6 6 7 6 6 6 7 7 8 7 7 7 7 7 7 7 7 7 7 7 7 7 8 8 7 8 8 8 8 7 8 6 3 6 3 5 5 5 4 4 4 5
7 7 7 7 6 6 6 5 5 4 4 3 3 3 3 3 3 4 4 4 4 4 5 5 5 5 5 5 5 6 5 5 6 6 6 6 6 7 7 7 7 7 6 6 7 7 7 7 7 8 7 7 7 7 8 8 8 8 8 8 9 8 8 8 8 7 5 3 4 6 5 5 5 7
Wind_Direction
280 277 281 288 293 294 295 289 292 299 307 294 302 310 313 327 313 318 320 337 323 316 359 350 267 331 306 298 315 305 310 50 344 322 317 325 310 81 33 315 322 301 317 312 318 321 329 338 348 345 344 339 335 334 299 231 234 249 278 213 286 293 281 141 3 17 9 9 18 8 15 30 30 14
280 283 289 300 294 297 292 290 298 301 295 290 291 300 310 305 295 309 306 318 307 328 324 312 146 200 289 302 306 326 320 100 299 322 313 308 349 41 260 234 240 309 307 311 315 321 333 345 350 352 346 341 341 337 337 271 233 241 260 275 297 296 169 160 148 337 355 8 10 12 12 25 37 47
283 297 297 296 294 300 301 302 293 304 302 297 301 301 298 298 300 294 296 294 311 315 307 318 339 322 345 322 318 328 319 115 341 316 322 310 0 290 234 182 197 142 268 298 308 313 333 337 346 348 346 344 343 345 338 317 247 245 248 252 264 277 183 168 174 236 314 1 6 13 12 14 35 39
288 291 283 286 287 286 290 289 294 280 270 298 300 301 304 296 286 294 288 287 301 304 313 330 312 328 348 324 325 329 308 70 179 330 311 326 282 279 95 148 151 102 140 360 316 321 320 330 340 345 348 348 349 350 346 344 342 307 272 247 239 273 167 167 190 197 218 312 355 359 6 12 24 47
269 258 274 320 297 323 317 317 321 315 314 281 263 266 271 270 270 277 285 288 297 303 315 297 320 338 333 325 335 324 327 323 343 326 323 324 325 321 357 127 44 138 100 102 346 318 325 327 328 337 354 1 2 2 358 352 341 337 325 287 228 220 189 181 199 195 203 235 303 342 357 10 14 27
263 279 116 244 257 244 242 253 260 262 317 308 292 276 280 292 283 262 292 299 302 306 310 324 330 313 340 315 336 335 318 332 322 333 328 329 335 330 325 322 146 189 128 89 83 292 299 307 313 329 352 9 21 14 6 352 346 346 338 321 242 204 198 203 199 205 206 224 243 303 341 359 14 2
271 230 225 237 259 292 280 271 274 277 263 238 270 292 291 287 290 258 267 297 299 307 309 312 306 330 326 322 332 324 331 321 336 330 336 336 333 341 330 316 14 154 87 104 132 243 254 266 289 305 333 16 29 21 9 3 11 6 357 352 278 184 199 203 209 214 208 213 236 244 262 306 353 341
207 223 238 256 260 262 269 270 267 272 263 241 247 252 251 256 280 305 276 259 285 299 305 316 314 327 327 330 337 344 340 335 341 338 345 337 337 345 332 320 318 46 18 134 156 211 203 222 255 270 319 37 51 21 10 17 19 21 24 19 359 277 219 198 200 217 218 211 221 235 237 249 248 283
230 213 227 233 233 239 251 256 252 253 289 279 251 252 248 251 272 281 294 284 283 295 301 314 323 332 329 344 352 4 345 340 343 354 344 336 350 345 346 329 352 337 197 134 187 210 189 196 177 127 353 44 72 61 29 24 25 28 33 35 32 42 28 323 270 217 212 220 222 227 223 218 238 245
220 225 228 233 238 245 255 265 271 276 280 271 258 258 272 296 303 292 282 292 295 300 315 322 329 349 359 356 0 6 351 345 350 347 344 350 10 354 355 1 15 352 353 343 273 190 171 197 165 111 143 47 97 75 52 42 32 22 18 23 41 43 30 14 315 274 275 253 230 226 229 233 216 208
231 234 237 237 240 248 255 261 267 325 325 306 292 270 274 269 289 287 307 315 322 328 331 334 6 353 11 360 349 8 356 352 356 353 352 359 3 11 3 6 6 357 354 353 165 7 348 357 9 140 139 110 90 78 79 58 35 15 6 1 8 20 23 20 8 345 275 263 263 251 246 247 235 223
241 238 241 243 240 245 248 271 16 297 271 275 301 303 349 301 302 318 332 346 350 347 346 355 356 345 349 3 350 357 4 360 10 7 351 356 358 6 16 28 13 358 347 347 31 202 204 197 176 160 133 93 99 119 72 65 41 20 10 5 8 9 8 6 6 4 347 307 277 272 265 253 250 248
226 243 249 249 251 278 296 87 145 13 20 303 277 277 242 278 320 328 346 13 8 344 353 340 335 340 12 19 2 4 7 7 356 355 350 354 359 356 18 29 33 8 355 7 9 23 17 28 28 34 53 79 55 51 33 21 24 21 10 11 15 16 13 14 17 16 7 355 336 305 279 269 261 255
235 235 244 250 258 333 279 95 88 83 83 39 20 15 11 303 301 359 36 345 340 22 324 15 352 359 10 13 10 4 8 355 348 351 356 5 3 11 10 26 33 14 4 360 19 24 23 23 36 28 32 42 39 32 24 22 12 15 12 12 12 17 19 25 36 36 22 10 355 338 315 294 275 264
259 258 249 256 175 193 133 101 86 77 63 60 60 54 45 30 9 334 337 63 70 307 23 49 36 37 30 23 10 12 2 2 2 357 5 19 29 26 18 15 19 19 355 349 14 35 16 19 32 28 26 36 41 29 35 13 22 23 23 19 16 12 12 14 34 53 57 39 19 355 339 325 313 303
246 248 235 215 117 137 129 118 104 89 85 81 72 63 57 56 49 43 30 14 49 41 82 64 48 43 38 26 21 15 9 3 10 4 17 33 37 33 34 29 18 5 352 348 4 44 21 16 32 41 34 33 42 76 56 15 14 15 10 16 19 23 20 17 21 33 33 40 46 24 7 358 344 333
249 227 253 222 142 122 113 125 116 109 103 102 101 93 77 64 59 49 47 35 50 96 79 72 58 41 27 29 26 15 9 0 16 8 11 27 27 38 42 35 23 13 356 357 1 20 24 0 12 36 30 36 22 75 91 45 19 353 355 357 11 17 24 24 23 22 31 28 34 40 17 20 29 32
245 226 208 199 110 108 132 127 125 125 122 114 110 101 87 82 81 83 80 73 51 53 67 67 69 53 36 37 16 4 1 15 18 9 8 355 21 50 42 46 37 34 8 11 349 5 21 6 1 18 17 16 36 70 102 135 43 347 335 349 350 1 3 18 27 41 42 42 45 41 30 34 52 57
65 90 76 80 115 172 136 128 133 129 122 118 112 97 90 77 60 42 40 41 62 74 78 82 74 61 48 38 26 2 6 10 9 11 2 358 349 1 336 71 54 48 27 14 357 9 3 6 354 11 358 5 19 41 145 102 152 225 279 312 343 342 347 352 3 14 27 35 55 78 82 91 81 74
77 78 107 137 149 157 154 133 133 129 131 124 115 112 101 94 80 67 56 55 51 51 58 63 67 67 60 42 32 19 10 9 360 356 33 4 16 12 18 7 47 43 40 14 358 350 2 0 359 346 11 348 8 22 43 134 110 168 183 186 241 336 352 358 2 3 356 359 344 342 353 97 114 111
86 117 145 136 131 139 130 122 124 150 145 131 126 124 119 109 102 98 85 67 71 74 72 71 72 72 66 51 37 24 16 9 5 27 28 19 10 30 17 9 5 43 31 21 354 332 357 355 357 343 349 323 341 16 22 23 152 182 153 167 152 96 359 341 343 1 358 347 335 323 319 308 255 187
118 145 136 142 146 143 140 136 131 287 160 129 130 127 117 112 108 107 104 102 99 102 84 69 61 52 49 45 51 38 28 20 24 31 27 17 14 21 17 16 353 23 41 23 356 336 11 346 2 342 340 311 38 17 15 13 15 164 178 173 129 148 182 215 338 340 20 342 335 341 332 333 321 260
134 133 136 141 141 125 107 111 149 198 154 130 130 130 121 108 100 93 93 88 81 67 62 44 45 46 44 43 37 44 41 34 30 28 23 16 17 12 5 5 353 358 25 24 356 342 351 344 8 347 344 340 349 360 2 9 9 7 356 228 159 71 210 192 194 221 198 207 235 306 332 335 328 314
126 121 118 93 86 100 104 95 85 72 79 105 104 108 110 111 101 97 94 91 93 87 70 62 53 53 50 48 44 34 34 37 33 26 19 20 8 6 4 5 1 14 8 22 352 338 336 340 352 352 348 330 333 343 1 352 9 9 357 355 342 11 329 189 189 216 194 181 180 235 319 327 346 338
133 130 117 104 81 88 85 83 78 75 72 80 94 96 103 102 110 111 103 98 91 89 94 81 69 59 53 47 44 41 34 30 27 27 26 14 15 8 14 4 352 14 34 31 345 348 337 341 349 343 347 332 332 333 352 326 23 8 359 355 346 17 356 5 358 7 179 173 175 201 197 280 6 0
132 127 122 116 96 93 89 85 84 80 76 74 86 83 90 93 97 97 104 113 108 93 77 65 57 51 47 44 35 30 30 25 14 17 14 15 10 15 15 7 356 356 356 33 1 353 339 346 354 342 342 336 332 333 336 340 3 12 356 356 343 353 0 358 355 0 357 357 346 2 23 136 247 240
125 121 118 114 104 95 90 85 83 82 83 83 87 93 97 105 107 99 92 97 96 92 80 70 61 49 45 42 35 28 16 20 7 354 10 4 4 3 18 8 360 359 359 7 11 357 346 342 349 349 338 334 324 333 338 344 346 2 356 354 344 352 7 359 351 358 357 352 346 311 229 186 212 236
124 125 118 104 98 93 88 83 77 73 73 87 93 98 106 109 100 99 106 92 84 82 78 69 60 52 42 39 34 21 12 4 4 349 350 9 353 2 352 13 359 9 350 16 14 6 351 344 344 350 331 332 329 341 340 340 336 355 357 347 345 357 7 353 353 358 359 351 341 345 344 350 352 294
93 94 103 108 103 102 98 95 91 82 82 89 92 95 106 101 77 64 67 73 76 76 77 75 70 65 52 44 32 20 7 4 2 360 357 352 356 352 1 345 335 333 4 22 21 11 357 358 347 346 335 340 333 345 343 336 336 350 358 342 351 349 1 356 352 355 359 350 343 340 348 347 345 353
106 111 111 108 106 102 101 97 98 101 98 89 83 80 86 92 80 73 76 79 81 80 78 71 64 56 46 28 16 1 0 2 8 355 352 343 359 352 358 348 2 6 10 14 28 16 359 2 351 344 336 341 334 340 344 331 338 347 353 353 351 331 12 353 356 356 2 350 340 345 356 339 2 4
113 114 107 92 84 84 84 90 101 112 116 113 107 93 79 78 83 81 82 84 86 79 73 66 48 37 20 7 349 349 9 8 12 360 356 354 1 352 357 345 6 357 2 2 25 22 359 357 349 344 336 342 335 350 338 330 337 350 351 351 348 346 355 349 354 355 357 346 335 346 348 336 6 19
112 108 103 100 100 106 111 116 120 113 101 95 96 92 88 88 93 101 103 95 78 65 49 40 28 26 6 10 0 356 2 5 6 10 359 357 355 350 345 344 8 355 350 358 5 16 3 1 351 345 337 338 336 348 341 341 345 351 345 348 350 343 347 351 347 351 352 340 340 341 343 355 8 14
112 105 101 104 107 110 114 116 119 120 115 109 111 123 135 138 128 98 58 61 54 46 39 36 21 15 1 10 355 356 357 357 354 20 355 355 349 339 343 350 7 4 351 354 358 4 3 351 349 334 328 320 330 337 345 350 354 350 342 344 345 342 343 345 342 348 346 338 345 344 350 12 15 18
111 111 115 119 115 111 113 119 125 127 129 130 124 109 103 86 72 79 75 59 59 49 33 17 14 10 355 357 356 349 356 353 354 26 352 351 349 342 347 350 6 4 349 347 354 358 354 349 344 333 327 309 231 46 10 358 350 351 346 337 345 339 344 339 344 342 344 340 345 344 337 360 15 27
112 118 117 116 115 117 127 139 142 144 143 138 139 127 107 93 89 68 55 40 35 26 19 15 10 0 358 350 354 348 4 350 348 359 354 354 351 351 345 353 356 355 348 347 353 358 352 348 344 342 342 328 56 107 1 358 11 354 342 345 349 345 339 343 338 336 342 348 353 339 335 356 15 31
118 121 121 123 128 141 146 136 129 129 121 121 106 99 92 78 63 55 53 23 12 22 8 1 5 357 351 352 351 348 2 346 347 0 353 356 354 356 347 353 348 354 344 340 349 354 352 348 351 350 347 347 343 344 160 58 37 3 352 346 348 344 345 343 335 332 343 350 349 341 342 348 360 20
124 125 125 127 135 137 130 133 137 130 123 100 91 95 96 86 74 65 57 16 17 20 17 345 4 353 348 356 340 350 358 356 348 359 356 358 359 355 351 348 350 355 343 347 349 351 349 348 354 352 345 341 345 340 348 68 62 28 2 354 346 350 346 340 332 336 349 345 344 345 345 351 0 14
127 127 129 137 140 137 134 126 110 99 97 98 99 94 87 85 78 71 42 40 18 1 359 357 6 357 354 357 347 354 1 2 349 4 1 360 2 357 353 350 345 353 344 338 345 350 354 351 355 353 344 341 338 340 335 342 334 58 38 10 355 345 347 342 343 346 342 347 348 350 343 348 1 12
130 136 134 128 117 117 106 103 105 105 106 104 97 88 83 80 78 64 41 33 23 358 359 12 12 357 355 1 348 351 6 2 355 8 1 1 4 359 354 350 341 352 341 337 344 351 357 359 0 352 341 336 335 329 327 321 325 347 50 12 18 359 356 344 345 344 346 348 347 339 350 2 100 108
123 127 130 125 108 104 104 104 104 100 95 84 77 68 66 64 47 34 30 22 18 6 4 26 8 348 14 10 355 352 12 7 6 3 3 354 5 354 359 346 339 346 337 342 344 351 352 356 357 346 337 325 314 312 307 300 292 304 108 80 48 45 9 355 354 349 349 350 339 334 344 351 340 204
121 111 102 100 101 100 102 99 96 94 93 90 86 71 59 46 38 48 34 20 9 352 17 27 15 7 22 4 9 0 8 7 4 4 356 353 356 352 349 330 345 351 343 340 347 346 352 354 345 329 310 312 318 310 304 323 334 339 337 39 113 111 125 41 2 360 351 350 343 347 344 351 342 353
97 95 92 91 94 96 98 100 101 99 95 90 85 91 88 81 69 357 142 78 19 32 27 26 27 16 20 13 13 5 3 8 5 356 353 352 350 348 350 354 352 347 344 347 351 344 344 339 336 335 338 330 332 330 335 333 332 334 336 334 8 157 175 143 218 352 3 4 354 352 347 347 352 355
93 95 95 93 92 94 92 92 91 87 82 70 61 50 58 62 70 87 43 60 34 36 39 43 32 25 21 15 12 10 6 5 358 355 353 358 357 353 1 355 349 349 346 346 342 342 338 337 340 338 335 335 341 335 336 340 332 332 327 337 336 344 141 162 175 158 169 283 342 342 352 345 346 353
97 99 99 98 97 94 92 87 82 78 77 82 83 66 52 78 93 73 56 51 47 42 38 36 33 25 16 13 8 12 12 1 352 4 1 359 359 1 352 352 352 351 346 345 344 343 344 340 341 339 337 346 347 337 340 332 332 329 331 334 330 333 344 349 141 187 180 222 198 193 220 282 303 306
103 102 104 103 102 101 98 97 89 85 88 98 99 99 107 92 84 78 62 48 41 44 43 35 22 22 17 11 11 18 7 0 1 13 357 355 2 358 358 355 349 344 343 348 339 342 345 342 342 341 341 346 341 337 329 333 328 329 332 338 333 336 341 340 335 333 338 333 147 194 194 203 233 247